Nellis AFB, NV

12:29 AM PST on December 14, 2019 (GMT -0800)
Nellis Air Force Base

Weather History for KLSV - October, 2019

Change the Weather History Date:

Wednesday, October 16, 2019

  Actual Average Record
Temperature  
Mean Temperature 70 °F -  
Max Temperature 88 °F 81 °F 92 °F (2011)
Min Temperature 51 °F 53 °F 46 °F (2017)
Cooling Degree Days 4    
Growing Degree Days 20 (Base 50)    
Moisture  
Dew Point 20 °F    
Average Humidity 17    
Maximum Humidity 26    
Minimum Humidity 8    
Precipitation  
Precipitation 0.00 in - - ()
Sea Level Pressure  
Sea Level Pressure 29.92 in    
Wind  
Wind Speed 2 mph (North)    
Max Wind Speed 6 mph    
Max Gust Speed -    
Visibility 10 miles    
Events      
Averages and records for this station are not official NWS values.
T = Trace of Precipitation, MM = Missing Value Source: NWS Daily Summary

Daily Weather History Graph

Daily Weather History Graph

Search for Another Location

Airport or City:

Astronomy

Oct. 16, 2019 Rise Set
Actual Time 6:47 AM PDT 6:02 PM PDT
Civil Twilight 6:21 AM PDT 6:28 PM PDT
Nautical Twilight 5:52 AM PDT 6:58 PM PDT
Astronomical Twilight 5:22 AM PDT 7:28 PM PDT
Moon 8:02 PM PDT (10/16) 9:19 AM PDT (10/16)
Length of Visible Light 12h 06m
Length of Day
11h 15m
Waning Gibbous, 92% of the Moon is Illuminated
Oct 16
Waning Gibbous
Oct 21
Last Quarter
Oct 27
New
Nov 4
First Quarter
Nov 12
Full

Hourly Weather History & Observations

Time (PDT) Temp. Dew Point Humidity Pressure Visibility Wind Dir Wind Speed Gust Speed Precip Events Conditions
12:58 AM 57.4 °F 19.9 °F 23% 30.01 in 10.0 mi NNW 3.5 mph - N/A   Clear
1:58 AM 59.4 °F 21.6 °F 23% 30.01 in 10.0 mi Calm Calm - N/A   Clear
2:58 AM 52.9 °F 18.0 °F 25% 30.01 in 10.0 mi Calm Calm - N/A   Clear
3:58 AM 54.1 °F 18.1 °F 24% 29.99 in 10.0 mi Calm Calm - N/A   Clear
4:58 AM 53.8 °F 18.7 °F 25% 30.01 in 10.0 mi North 3.5 mph - N/A   Clear
5:58 AM 53.4 °F 18.5 °F 25% 30.01 in 10.0 mi Calm Calm - N/A   Clear
6:58 AM 51.4 °F 17.6 °F 26% 30.04 in 10.0 mi West 3.5 mph - N/A   Clear
7:58 AM 52.7 °F 17.8 °F 25% 30.05 in 10.0 mi Calm Calm - N/A   Clear
8:58 AM 61.3 °F 19.9 °F 20% 30.06 in 10.0 mi Calm Calm - N/A   Clear
9:58 AM 68.0 °F 18.7 °F 15% 30.06 in 10.0 mi NW 3.5 mph - N/A   Clear
10:58 AM 75.0 °F 18.9 °F 12% 30.03 in 10.0 mi Calm Calm - N/A   Clear
12:58 PM 84.2 °F 19.2 °F 9% 29.94 in 10.0 mi NE 5.8 mph - N/A   Clear
1:58 PM 85.5 °F 20.1 °F 9% 29.89 in 10.0 mi Calm Calm - N/A   Clear
2:58 PM 88.7 °F 19.8 °F 8% 29.86 in 10.0 mi Calm Calm - N/A   Clear
3:58 PM 87.3 °F 21.6 °F 9% 29.83 in 10.0 mi South 3.5 mph - N/A   Clear
4:58 PM 86.0 °F 23.0 °F 10% 29.81 in 10.0 mi Calm Calm - N/A   Clear
5:58 PM 83.8 °F 23.7 °F 11% 29.80 in 10.0 mi NE 4.6 mph - N/A   Clear
6:58 PM 75.7 °F 21.4 °F 13% 29.80 in 10.0 mi NNE 3.5 mph - N/A   Clear
7:58 PM 74.5 °F 22.1 °F 14% 29.80 in 10.0 mi Calm Calm - N/A   Scattered Clouds
8:58 PM 73.4 °F 21.2 °F 14% 29.77 in 10.0 mi North 3.5 mph - N/A   Partly Cloudy
9:58 PM 73.4 °F 19.4 °F 13% 29.78 in 10.0 mi NW 2.3 mph - N/A   Partly Cloudy
10:58 PM 68.2 °F 21.7 °F 17% 29.76 in 10.0 mi NNE 3.5 mph - N/A   Partly Cloudy
11:58 PM 66.2 °F 22.6 °F 19% 29.74 in 10.0 mi North 4.6 mph - N/A   Partly Cloudy